Regional Weather Roundup
Issued by NWS

Home | Current Version | Previous Version | Text Only | Print | Product List | Glossary On
Versions: 1 2 3 4 5 6 7 8 9 10 11 12 13 14 15 16 17 18 19 20 21 22 23 24 25 26 27 28 29 30 31 32 33 34 35 36 37 38 39 40 41 42 43 44 45 46 47 48 49 50
000
ASUS44 KFWD 211603
RWRTX
NORTH TEXAS HOURLY WEATHER ROUNDUP
NATIONAL WEATHER SERVICE FORT WORTH TX
1100 AM CDT THU AUG 21 2014

NOTE: "FAIR" INDICATES FEW OR NO CLOUDS BELOW 12,000 FEET WITH NO
SIGNIFICANT WEATHER AND/OR OBSTRUCTIONS TO VISIBILITY.

TXZ118-119-211700-
DALLAS/FORT WORTH METROPLEX

CITY           SKY/WX    TMP DP  RH WIND       PRES   REMARKS
DFW AIRPORT    PTSUNNY   88  72  58 S22G28    30.02S HX  94
DALLAS LOVE    MOSUNNY   87  72  60 SW14G24   30.03S HX  93
FTW MEACHAM    PTSUNNY   89  72  56 S16G24    30.02S HX  96
DAL-EXECUTIVE  MOSUNNY   89  72  56 S9G21     30.03F HX  96
FTW-ALLIANCE   PTSUNNY   87  71  58 S13G26    30.01S HX  93
FTW-NAS-JRB    PTSUNNY   91  70  49 S17G25    30.06S HX  96
FTW-SPINKS     PTSUNNY   88  72  58 S10G23    30.05R HX  94
ARLINGTON      PTSUNNY   88  72  58 S12G24    30.03S HX  94
GRAND PRAIRIE  MOSUNNY   88  72  58 SE12G23   30.05S HX  94
MESQUITE         N/A     88  72  58 S18G24    30.05S HX  94
LANCASTER      MOSUNNY   88  71  56 SW12G22   30.05F HX  93
$$

TXZ091>094-102>105-117-120-121-131>134-211700-
NORTH CENTRAL TEXAS

CITY           SKY/WX    TMP DP  RH WIND       PRES   REMARKS
SHRMAN/DENISON PTSUNNY   87  72  61 S17       30.05S HX  93
GAINESVILLE    MOSUNNY   85  73  65 S20G25    30.04F HX  91
BOWIE          SUNNY     88  71  58 S16G23    30.02S HX  93
BRIDGEPORT     SUNNY     88  68  52 S13G18    30.04S HX  91
DECATUR        MOSUNNY   86  70  59 S9G17     30.04S HX  91
DENTON         CLOUDY    87  72  60 S18G24    30.03S HX  93
MCKINNEY       PTSUNNY   87  74  64 S14G25    30.03F HX  95
GREENVILLE     MOSUNNY   88  72  58 S15G23    30.06F HX  94
ROCKWALL       MOSUNNY   87  74  66 S17G28    30.04S HX  95
TERRELL        MOSUNNY   89  74  60 S20       30.05F HX  98
WAXAHACHIE     MOSUNNY   88  69  54 S17G23    30.05S HX  92
CLEBURNE       PTSUNNY   88  75  66 S13G21    30.05S HX  97
GRANBURY       PTSUNNY   90  71  52 S15       30.04S HX  96
$$

TXZ083>090-098>101-113>116-127>130-139>142-154-155-211700-
WESTERN NORTH TEXAS

CITY           SKY/WX    TMP DP  RH WIND       PRES   REMARKS
WICHITA FALLS  SUNNY     89  70  53 S17       29.97F HX  94
WF-KICKAPOO    SUNNY     89  67  47 SW14G22   29.99F HX  92
VERNON         SUNNY     91  68  47 S21G28    29.98S HX  94
ABILENE        MOSUNNY   87  70  56 S25G31    30.03S HX  92
ABILENE-DYESS  SUNNY     86  71  60 S21G29    30.02S HX  91
BRECKENRIDGE   SUNNY     91  69  48 S15G24    30.02S HAZE    HX  95
GRAHAM         SUNNY     90  69  50 S13G18    30.00S HX  94
MINERAL WELLS  MOSUNNY   88  72  58 S14       30.01S HX  94
STEPHENVILLE   MOSUNNY   85  70  59 S10G20    30.07S HX  90
COMANCHE       SUNNY     88  69  53 SW18G26   30.04F HX  92
BROWNWOOD      MOSUNNY   88  68  51 S18       30.05S HX  91
COLEMAN        PTSUNNY   84  71  64 S18       30.06R
BRADY          SUNNY     84  70  61 S16       30.06S
$$

TXZ143>147-156>162-174-175-211700-
CENTRAL TEXAS

CITY           SKY/WX    TMP DP  RH WIND       PRES   REMARKS
WACO           MOSUNNY   89  71  55 S20       30.05R HX  95
WACO-TSTC      SUNNY     91  70  49 S22       30.05S HX  97
WACO-MCGREGOR  SUNNY     90  70  51 S17G23    30.05S HX  95
HILLSBORO      SUNNY     89  69  50 S22       30.05S HX  93
CORSICANA      MOSUNNY   91  72  53 S20G25    30.07S HX  98
MEXIA          SUNNY     89  73  59 S13G20    30.06S HX  96
HEARNE           N/A     90  70  51 S14G20    30.07S HX  95
CAMERON        SUNNY     90  69  49 S16G23    30.06S HX  95
TEMPLE         SUNNY     90  68  48 S20       30.05R HX  93
KILLEEN        MOSUNNY   88  70  55 S20G28    30.05S HX  92
KILLEEN-SKYLRK SUNNY     90  66  45 S18G24    30.06R HX  92
FORT HOOD      SUNNY     91  67  44 S20G26    30.05S HX  94
GATESVILLE     SUNNY     90  70  51 S13       30.07S HX  95
HAMILTON       SUNNY     89  67  48 S18G24    30.07R HX  92
LAMPASAS       SUNNY     90  72  55 S13       30.06S HX  96
$$

TXZ095>097-106>112-122>126-135>138-148>153-164>167-211700-
EAST TEXAS

CITY           SKY/WX    TMP DP  RH WIND       PRES   REMARKS
PARIS          CLOUDY    84  72  65 SW14      30.08S
SULPHUR SPRNGS PTSUNNY   88  73  59 SW16      30.09S HX  95
CLARKSVILLE    PTSUNNY   85  74  68 S6        30.08S HX  93
MOUNT PLEASANT PTSUNNY   87  74  64 S13       30.10S HX  96
GILMER         MOSUNNY   86  75  70 SW6       30.10S HX  95
MINEOLA        PTSUNNY   88  75  66 S13G18    30.08S HX  97
TYLER          MOSUNNY   88  74  63 S18       30.08S HX  96
LONGVIEW       PTSUNNY   88  74  63 SW17      30.09S HX  96
MARSHALL       PTSUNNY   89  77  68 S14       30.12S HX 101
ATHENS         CLOUDY    84  75  74 S10G16    30.07S HX  92
PALESTINE      PTSUNNY   87  77  73 S8        30.09S HX  98
JACKSONVILLE   MOSUNNY   86  76  70 S10G16    30.12S HX  96
HENDERSON      CLOUDY    86  75  69 S12G17    30.11S HX  95
NACOGDOCHES    CLOUDY    84  77  79 W10       30.11S HX  94
LUFKIN         CLOUDY    89  79  72 S12       30.10S HX 104
$$

SUPPLEMENTAL OBSERVATIONS (CENTRAL)

CITY           SKY/WX    TMP DP  RH WIND       PRES   REMARKS
$$

SUPPLEMENTAL OBSERVATIONS (WEST)

CITY           SKY/WX    TMP DP  RH WIND       PRES   REMARKS
$$

SUPPLEMENTAL OBSERVATIONS (EAST)

CITY           SKY/WX    TMP DP  RH WIND       PRES   REMARKS
$$

SUPPLEMENTAL OBSERVATIONS ARE A COLLECTION OF AUTOMATED INSTRUMENTS
THAT ARE MAINTAINED BY A VARIETY OF FEDERAL AND STATE AGENCIES.
CERTAIN ELEMENTS...SUCH AS HUMIDITY VALUES AND SUSTAINED WIND
SPEEDS...MAY BE APPROXIMATED.



USA.gov is the U.S. government's official web portal to all federal, state and local government web resources and services.